STARLINK-15 FULL STACK 1 72000C 20074A 20298.69090961 .00003820 00000-0 65987-5 0 09 2 72000 53.0572 163.3405 0010368 319.7652 309.6103 16.01488149 11 STARLINK-15 SINGLE SAT 1 72001C 20074B 20298.69090961 .00765175 00000-0 13022-2 0 08 2 72001 53.0572 163.3405 0010429 319.2669 310.1082 16.01490722 16